Sable Island, Nova Scotia

11:22 AM ADT on October 23, 2017 (GMT -0300)
Sable Island

Weather History for CWSA - October, 2011

Change the Weather History Date:

Friday, October 7, 2011

  Actual Average Record
Temperature  
Mean Temperature 46 °F -  
Max Temperature 50 °F 55 °F 69 °F (2012)
Min Temperature 41 °F 46 °F 39 °F (2006)
Degree Days  
Heating Degree Days 20    
Moisture  
Dew Point 35 °F    
Average Humidity 66    
Maximum Humidity 81    
Minimum Humidity 47    
Precipitation  
Precipitation 0.02 in 0.17 in - ()
Sea Level Pressure  
Sea Level Pressure 30.15 in    
Wind  
Wind Speed 20 mph ()    
Max Wind Speed 28 mph    
Max Gust Speed 36 mph    
Visibility 9.0 miles    
Events Rain    
Averages and records for this station are not official NWS values.
T = Trace of Precipitation, MM = Missing Value Source: Averaged Metar Reports

Daily Weather History Graph

Daily Weather History Graph

Search for Another Location

Airport or City:

Trip Planner

Search our weather history database for the weather conditions in past years. The results will help you decide how hot, cold, wet, or windy it might be!

Date:

Astronomy

Oct. 07, 2011 Rise Set
Actual Time 7:04 AM ADT 6:30 PM ADT
Civil Twilight 6:35 AM ADT 6:59 PM ADT
Nautical Twilight 6:02 AM ADT 7:32 PM ADT
Astronomical Twilight 5:28 AM ADT 8:06 PM ADT
Moon 4:18 PM ADT (10/7) 2:40 AM ADT (10/7)
Length of Visible Light 12h 23m
Length of Day
11h 26m
Waxing Gibbous, 83% of the Moon is Illuminated
Oct 7
Waxing Gibbous
Oct 11
Full
Oct 20
Last Quarter
Oct 26
New
Nov 2
First Quarter

Hourly Weather History & Observations

Time (ADT) Temp. Windchill Dew Point Humidity Pressure Visibility Wind Dir Wind Speed Gust Speed Precip Events Conditions
12:00 AM 44 °F - 35 °F 63% 29.99 in 9 mi NW 25.3 mph - - Rain Light Rain
12:00 AM 44.6 °F 35.7 °F 35.6 °F 71% 29.99 in 9.0 mi NW 24.2 mph 34.5 mph N/A Rain Light Rain
12:04 AM 44.6 °F 35.1 °F 33.8 °F 66% 29.99 in 9.0 mi NW 27.6 mph 34.5 mph N/A   Mostly Cloudy
12:40 AM 44.6 °F 35.3 °F 35.6 °F 71% 30.00 in 9.0 mi NW 26.5 mph 35.7 mph N/A   Mostly Cloudy
1:00 AM 44.6 °F 35.3 °F 33.8 °F 66% 30.01 in 9.0 mi NW 26.5 mph 34.5 mph N/A   Mostly Cloudy
2:00 AM 44.6 °F 36.1 °F 35.6 °F 71% 30.03 in 9.0 mi NW 21.9 mph 29.9 mph N/A   Mostly Cloudy
3:00 AM 45 °F - 34 °F 55% 30.03 in 9 mi NW 24.2 mph - -  
3:00 AM 44.6 °F 35.5 °F 33.8 °F 66% 30.03 in 9.0 mi NW 25.3 mph 32.2 mph N/A   Mostly Cloudy
4:00 AM 44.6 °F 36.1 °F 32.0 °F 61% 30.04 in 9.0 mi NNW 21.9 mph 28.8 mph N/A   Mostly Cloudy
4:26 AM 46.4 °F 38.5 °F 35.6 °F 66% 30.04 in 9.0 mi NNW 21.9 mph 28.8 mph N/A Rain Light Rain
4:38 AM 44.6 °F 36.6 °F 37.4 °F 76% 30.04 in 9.0 mi NNW 19.6 mph 33.4 mph N/A Rain Light Rain
4:40 AM 44.6 °F 35.7 °F 35.6 °F 71% 30.05 in 9.0 mi NNW 24.2 mph 33.4 mph N/A   Mostly Cloudy
4:51 AM 44.6 °F 35.7 °F 35.6 °F 71% 30.05 in 9.0 mi NNW 24.2 mph 31.1 mph N/A   Light Drizzle
5:00 AM 42.8 °F 32.9 °F 35.6 °F 76% 30.06 in 7.0 mi NNW 26.5 mph 32.2 mph N/A   Light Drizzle
5:03 AM 42.8 °F 33.5 °F 35.6 °F 76% 30.06 in 9.0 mi NNW 23.0 mph 32.2 mph N/A Rain Light Rain
5:18 AM 42.8 °F 32.9 °F 35.6 °F 76% 30.06 in 9.0 mi NW 26.5 mph 33.4 mph N/A   Mostly Cloudy
5:22 AM 42.8 °F 33.5 °F 33.8 °F 70% 30.06 in 9.0 mi NW 23.0 mph 33.4 mph N/A Rain Light Rain
5:37 AM 44.6 °F 37.8 °F 35.6 °F 71% 30.07 in 9.0 mi NW 15.0 mph 23.0 mph N/A   Mostly Cloudy
5:48 AM 44.6 °F 35.7 °F 33.8 °F 66% 30.07 in 9.0 mi NW 24.2 mph - N/A   Mostly Cloudy
6:00 AM 46 °F - 35 °F 56% 30.08 in 9 mi NW 21.9 mph - -  
6:00 AM 46.4 °F 38.5 °F 35.6 °F 66% 30.08 in 9.0 mi NNW 21.9 mph 28.8 mph N/A   Mostly Cloudy
6:08 AM 44.6 °F 35.5 °F 35.6 °F 71% 30.08 in 9.0 mi North 25.3 mph 31.1 mph N/A   Overcast
6:19 AM 42.8 °F 33.8 °F 37.4 °F 81% 30.09 in 9.0 mi North 21.9 mph 29.9 mph N/A Rain Light Rain
6:35 AM 42.8 °F 33.1 °F 37.4 °F 81% 30.09 in 9.0 mi North 25.3 mph 31.1 mph N/A   Mostly Cloudy
6:40 AM 42.8 °F 33.8 °F 35.6 °F 76% 30.10 in 9.0 mi North 21.9 mph 31.1 mph N/A   Mostly Cloudy
6:46 AM 42.8 °F 35.1 °F 35.6 °F 76% 30.10 in 9.0 mi North 16.1 mph 24.2 mph N/A   Light Drizzle
6:48 AM 42.8 °F 35.1 °F 37.4 °F 81% 30.10 in 9.0 mi North 16.1 mph 24.2 mph N/A   Mostly Cloudy
7:00 AM 42.8 °F 33.3 °F 35.6 °F 76% 30.11 in 9.0 mi NNW 24.2 mph 29.9 mph N/A   Mostly Cloudy
7:43 AM 42.8 °F 34.0 °F 35.6 °F 76% 30.13 in 9.0 mi NNW 20.7 mph 29.9 mph N/A   Overcast
8:00 AM 44.6 °F 36.6 °F 33.8 °F 66% 30.14 in 9.0 mi NNW 19.6 mph - N/A   Overcast
8:09 AM 44.6 °F 38.1 °F 35.6 °F 71% 30.13 in 9.0 mi NW 13.8 mph 23.0 mph N/A   Mostly Cloudy
8:37 AM 44.6 °F 35.9 °F 35.6 °F 71% 30.14 in 9.0 mi WNW 23.0 mph - N/A   Overcast
9:00 AM 46 °F - 34 °F 53% 30.16 in 9 mi NNW 23.0 mph - -   Overcast
9:00 AM 46.4 °F 38.7 °F 33.8 °F 62% 30.16 in 9.0 mi NNW 20.7 mph 28.8 mph N/A   Overcast
9:09 AM 46.4 °F 38.7 °F 33.8 °F 62% 30.16 in 9.0 mi NW 20.7 mph 29.9 mph N/A Rain Light Rain
9:24 AM 46.4 °F 39.2 °F 35.6 °F 66% 30.16 in 9.0 mi NNW 18.4 mph - N/A   Mostly Cloudy
9:48 AM 46.4 °F 38.1 °F 37.4 °F 71% 30.17 in 9.0 mi North 24.2 mph - N/A   Overcast
10:24 AM 46.4 °F 39.0 °F 35.6 °F 66% 30.18 in 9.0 mi NNW 19.6 mph - N/A   Mostly Cloudy
11:00 AM 50.0 °F - 35.6 °F 58% 30.20 in 9.0 mi NW 19.6 mph 25.3 mph N/A   Scattered Clouds
12:00 PM 48.2 °F - 35.6 °F 62% 30.21 in 9.0 mi North 16.1 mph 23.0 mph N/A   Mostly Cloudy
1:00 PM 48.2 °F - 35.6 °F 62% 30.22 in 9.0 mi North 20.7 mph - N/A   Mostly Cloudy
1:06 PM 46.4 °F 39.5 °F 37.4 °F 71% 30.22 in 9.0 mi NNW 17.3 mph 27.6 mph N/A Rain Light Rain
1:24 PM 48.2 °F - 33.8 °F 58% 30.22 in 9.0 mi NNW 15.0 mph 23.0 mph N/A   Scattered Clouds
2:00 PM 46.4 °F 39.5 °F 35.6 °F 66% 30.22 in 9.0 mi NNW 17.3 mph 24.2 mph N/A   Scattered Clouds
3:00 PM 48 °F - 35 °F 51% 30.23 in 9 mi NNW 16.1 mph - -  
3:00 PM 48.2 °F - 35.6 °F 62% 30.23 in 9.0 mi NNW 13.8 mph 20.7 mph N/A   Mostly Cloudy
4:00 PM 48.2 °F - 35.6 °F 62% 30.24 in 9.0 mi NW 19.6 mph - N/A   Mostly Cloudy
5:00 PM 46.4 °F 40.4 °F 33.8 °F 62% 30.25 in 9.0 mi North 13.8 mph 20.7 mph N/A   Mostly Cloudy
6:00 PM 46 °F - 34 °F 52% 30.26 in 9 mi NNW 17.3 mph - -  
8:00 PM 46.4 °F 39.0 °F 30.2 °F 53% 30.30 in 9.0 mi NNW 19.6 mph - N/A   Overcast
9:00 PM 47 °F - 33 °F 47% 30.31 in 9 mi NNW 16.1 mph - -   Overcast
10:00 PM 44.6 °F 39.2 °F 33.8 °F 66% 30.33 in 9.0 mi NW 10.4 mph - N/A   Overcast
11:00 PM 46.4 °F 40.4 °F 32.0 °F 57% 30.33 in 9.0 mi NW 13.8 mph - N/A   Overcast
11:08 PM 46.4 °F 40.1 °F 33.8 °F 62% 30.32 in 9.0 mi NW 15.0 mph - N/A Rain Light Rain
11:16 PM 44.6 °F 37.2 °F 33.8 °F 66% 30.33 in 9.0 mi NW 17.3 mph - N/A   Overcast
11:17 PM 44.6 °F 37.4 °F 33.8 °F 66% 30.33 in 9.0 mi NW 16.1 mph - N/A Rain Light Rain
11:19 PM 44.6 °F 38.4 °F 32.0 °F 61% 30.33 in 9.0 mi NW 12.7 mph 20.7 mph N/A   Overcast
11:31 PM 44.6 °F 40.2 °F 33.8 °F 66% 30.32 in 9.0 mi WNW 8.1 mph - N/A Rain Light Rain
11:32 PM 44.6 °F 40.2 °F 32.0 °F 61% 30.32 in 9.0 mi NW 8.1 mph - N/A   Overcast
11:39 PM 44.6 °F 41.4 °F 33.8 °F 66% 30.32 in 9.0 mi WNW 5.8 mph - N/A Rain Light Rain